Location: Haieshausen
(51.8387°N, 9.9720°E)
Time: 04:17:44
(UTC+00:00)

Cosmos 1607 - Pass Details

Date: 14 July 2020
Orbit: 913 x 990 km, 65.0° (Epoch: 10 August)

Event Time Altitude Azimuth Distance (km) Brightness Sun altitude
Exits shadow 00:20:03 11° 238° (WSW) 2,568 5.8 -15.6°
Maximum altitude 00:25:58 63° 319° (NW) 1,066 4.3 -15.4°
Drops below altitude 10° 00:32:17 10° 40° (NE) 2,722 7.4 -15.1°
Sets 00:34:55 0° 44° (NE) 3,682 8.2 -15.0°
